QPF
0.00 0.00 0.00 0.00 0.01 0.01 0.02 0.01 0.01 0.00 0.00 0.00 0.00 0.00 0.00 0.00 0.00 0.00 0.01 0.01 0.01 0.01 0.01 0.01 0.02 0.03 0.02 0.01 0.01 0.01 0.01 0.01 0.01 0.01 0.01 0.01 0.01 0.01 0.01 0.01 0.01 0.01 0.01 0.01
0.00 0.00 0.00 0.00 0.00 0.00 0.00 0.01 0.00 0.00 0.00 0.00 0.00 0.00 0.00 0.00 0.01 0.01 0.01 0.01 0.01 0.01 0.01 0.01 0.02 0.02 0.01 0.01 0.01 0.01 0.01 0.01 0.01 0.01 0.01 0.01 0.01 0.01 0.01 0.01 0.01 0.01 0.01 0.01
0.01 0.00 0.01 0.01 0.00 0.00 0.00 0.01 0.00 0.00 0.00 0.00 0.00 0.00 0.00 0.01 0.01 0.01 0.01 0.01 0.01 0.01 0.01 0.01 0.02 0.01 0.01 0.01 0.01 0.01 0.01 0.01 0.01 0.01 0.01 0.01 0.01 0.01 0.01 0.01 0.01 0.01 0.01 0.01
0.02 0.01 0.01 0.00 0.00 0.00 0.01 0.01 0.01 0.01 0.01 0.01 0.01 0.01 0.01 0.00 0.00 0.00 0.00 0.01 0.01 0.01 0.02 0.01 0.01 0.01 0.01 0.01 0.01 0.01 0.01 0.01 0.01 0.01 0.01 0.01 0.01 0.01 0.01 0.01 0.01 0.01 0.00 0.00
0.04 0.02 0.01 0.00 0.00 0.00 0.01 0.01 0.01 0.00 0.00 0.00 0.00 0.00 0.00 0.00 0.00 0.00 0.00 0.01 0.01 0.01 0.01 0.01 0.00 0.00 0.00 0.00 0.01 0.01 0.01 0.01 0.01 0.01 0.01 0.01 0.01 0.01 0.01 0.01 0.00 0.00 0.00 0.00
0.04 0.03 0.01 0.01 0.01 0.00 0.01 0.01 0.00 0.00 0.00 0.00 0.00 0.00 0.00 0.00 0.00 0.00 0.00 0.00 0.00 0.00 0.00 0.00 0.00 0.00 0.00 0.00 0.01 0.01 0.01 0.01 0.01 0.01 0.01 0.01 0.01 0.01 0.01 0.00 0.00 0.00 0.00 0.00
0.03 0.03 0.01 0.01 0.00 0.00 0.01 0.01 0.00 0.00 0.00 0.01 0.01 0.01 0.00 0.00 0.00 0.00 0.00 0.00 0.00 0.00 0.00 0.00 0.00 0.00 0.00 0.00 0.01 0.01 0.01 0.01 0.01 0.01 0.01 0.01 0.01 0.01 0.01 0.00 0.00 0.00 0.00 0.00
0.02 0.03 0.01 0.00 0.00 0.00 0.00 0.00 0.00 0.00 0.00 0.00 0.00 0.00 0.00 0.00 0.00 0.00 0.00 0.00 0.00 0.00 0.00 0.00 0.00 0.00 0.00 0.00 0.01 0.01 0.01 0.01 0.01 0.01 0.01 0.01 0.01 0.01 0.01 0.01 0.00 0.00 0.00 0.00
0.01 0.01 0.01 0.00 0.00 0.00 0.00 0.00 0.00 0.00 0.00 0.00 0.00 0.00 0.00 0.00 0.00 0.01 0.00 0.00 0.00 0.00 0.00 0.00 0.00 0.00 0.00 0.00 0.01 0.01 0.01 0.01 0.01 0.01 0.01 0.01 0.01 0.00 0.00 0.01 0.01 0.00 0.00 0.00
0.01 0.01 0.01 0.00 0.00 0.00 0.00 0.00 0.00 0.00 0.00 0.00 0.00 0.00 0.01 0.01 0.01 0.00 0.00 0.00 0.00 0.00 0.00 0.00 0.00 0.00 0.00 0.00 0.01 0.01 0.01 0.01 0.01 0.01 0.01 0.01 0.01 0.00 0.00 0.01 0.01 0.01 0.00 0.00
0.01 0.00 0.00 0.00 0.00 0.00 0.00 0.00 0.00 0.00 0.00 0.00 0.00 0.01 0.01 0.01 0.00 0.00 0.00 0.00 0.00 0.00 0.00 0.00 0.00 0.00 0.01 0.01 0.01 0.01 0.01 0.01 0.01 0.01 0.01 0.01 0.01 0.01 0.01 0.01 0.01 0.01 0.01 0.01
0.01 0.01 0.01 0.01 0.00 0.00 0.01 0.00 0.00 0.00 0.00 0.00 0.00 0.01 0.01 0.00 0.00 0.00 0.00 0.01 0.00 0.00 0.00 0.00 0.00 0.00 0.00 0.01 0.01 0.01 0.01 0.01 0.01 0.01 0.01 0.01 0.01 0.01 0.01 0.01 0.00 0.01 0.01 0.01
0.01 0.01 0.01 0.01 0.00 0.01 0.01 0.01 0.00 0.00 0.00 0.00 0.00 0.00 0.00 0.00 0.00 0.00 0.00 0.00 0.00 0.00 0.00 0.00 0.00 0.00 0.00 0.01 0.01 0.01 0.01 0.01 0.01 0.01 0.01 0.01 0.01 0.01 0.01 0.01 0.01 0.00 0.01 0.01
0.01 0.01 0.01 0.00 0.01 0.01 0.01 0.01 0.01 0.00 0.00 0.00 0.00 0.00 0.00 0.01 0.00 0.00 0.00 0.00 0.00 0.00 0.00 0.00 0.00 0.00 0.00 0.00 0.01 0.01 0.01 0.01 0.01 0.01 0.01 0.01 0.01 0.01 0.01 0.01 0.01 0.01 0.01 0.01
0.00 0.01 0.01 0.01 0.00 0.00 0.01 0.01 0.01 0.00 0.00 0.00 0.00 0.00 0.01 0.01 0.01 0.01 0.00 0.01 0.00 0.00 0.01 0.00 0.00 0.00 0.00 0.01 0.01 0.01 0.01 0.01 0.01 0.01 0.01 0.01 0.01 0.01 0.01 0.01 0.01 0.01 0.01 0.02
0.00 0.00 0.00 0.00 0.00 0.00 0.01 0.01 0.01 0.01 0.01 0.01 0.01 0.01 0.01 0.01 0.01 0.01 0.01 0.01 0.01 0.01 0.01 0.01 0.01 0.01 0.01 0.01 0.01 0.01 0.01 0.01 0.01 0.01 0.01 0.01 0.01 0.01 0.01 0.01 0.01 0.02 0.02 0.02
0.00 0.00 0.00 0.00 0.00 0.00 0.01 0.01 0.01 0.01 0.01 0.01 0.01 0.01 0.01 0.01 0.01 0.01 0.01 0.01 0.01 0.01 0.01 0.01 0.01 0.01 0.01 0.01 0.02 0.02 0.01 0.01 0.01 0.01 0.01 0.01 0.02 0.02 0.01 0.01 0.02 0.02 0.02 0.02
0.00 0.01 0.01 0.01 0.01 0.01 0.01 0.01 0.01 0.01 0.01 0.01 0.01 0.01 0.01 0.01 0.01 0.00 0.00 0.00 0.00 0.00 0.01 0.01 0.01 0.01 0.01 0.01 0.02 0.02 0.02 0.02 0.02 0.02 0.02 0.02 0.02 0.02 0.02 0.02 0.02 0.02 0.02 0.02
0.00 0.00 0.00 0.01 0.01 0.01 0.01 0.00 0.00 0.00 0.00 0.01 0.01 0.01 0.00 0.00 0.00 0.00 0.00 0.00 0.00 0.00 0.00 0.01 0.01 0.01 0.01 0.01 0.02 0.02 0.02 0.02 0.02 0.02 0.02 0.02 0.03 0.02 0.02 0.02 0.02 0.02 0.02 0.02
0.00 0.00 0.00 0.00 0.00 0.00 0.00 0.00 0.00 0.00 0.00 0.01 0.01 0.01 0.00 0.00 0.00 0.00 0.00 0.00 0.00 0.01 0.00 0.01 0.01 0.01 0.01 0.01 0.01 0.01 0.01 0.02 0.02 0.02 0.02 0.02 0.02 0.01 0.02 0.02 0.02 0.02 0.02 0.02
0.00 0.00 0.00 0.00 0.00 0.00 0.00 0.00 0.00 0.00 0.01 0.01 0.01 0.01 0.01 0.00 0.01 0.01 0.01 0.01 0.01 0.01 0.01 0.01 0.01 0.01 0.01 0.01 0.01 0.01 0.01 0.01 0.02 0.02 0.01 0.01 0.01 0.01 0.01 0.01 0.02 0.02 0.02 0.02
0.00 0.00 0.00 0.00 0.00 0.00 0.00 0.00 0.00 0.00 0.00 0.00 0.00 0.01 0.01 0.00 0.01 0.01 0.01 0.01 0.01 0.01 0.01 0.01 0.01 0.01 0.01 0.02 0.02 0.01 0.01 0.01 0.01 0.01 0.01 0.01 0.01 0.01 0.01 0.01 0.02 0.02 0.02 0.02
0.00 0.00 0.00 0.00 0.00 0.00 0.00 0.00 0.00 0.00 0.01 0.01 0.01 0.01 0.01 0.01 0.01 0.01 0.01 0.01 0.01 0.01 0.01 0.01 0.01 0.02 0.02 0.02 0.01 0.01 0.01 0.01 0.01 0.01 0.01 0.01 0.01 0.01 0.01 0.01 0.02 0.02 0.02 0.02
0.00 0.00 0.00 0.00 0.00 0.00 0.00 0.00 0.00 0.01 0.01 0.01 0.01 0.01 0.01 0.01 0.01 0.01 0.01 0.01 0.01 0.01 0.01 0.02 0.02 0.02 0.02 0.01 0.01 0.01 0.01 0.01 0.01 0.01 0.01 0.01 0.01 0.01 0.01 0.01 0.01 0.01 0.01 0.01
0.00 0.00 0.00 0.00 0.00 0.00 0.00 0.00 0.00 0.00 0.01 0.01 0.01 0.01 0.01 0.01 0.01 0.01 0.01 0.01 0.01 0.01 0.01 0.02 0.02 0.02 0.02 0.01 0.01 0.01 0.01 0.01 0.01 0.01 0.01 0.01 0.01 0.01 0.01 0.01 0.01 0.01 0.01 0.01
0.00 0.00 0.01 0.01 0.01 0.01 0.01 0.00 0.00 0.00 0.01 0.01 0.01 0.01 0.01 0.01 0.01 0.01 0.01 0.01 0.01 0.02 0.02 0.01 0.02 0.02 0.02 0.01 0.01 0.01 0.01 0.01 0.01 0.01 0.01 0.01 0.01 0.01 0.01 0.01 0.01 0.01 0.01 0.01
0.00 0.01 0.01 0.01 0.01 0.01 0.01 0.01 0.01 0.01 0.01 0.01 0.01 0.01 0.01 0.01 0.01 0.02 0.02 0.02 0.02 0.02 0.02 0.02 0.02 0.02 0.01 0.01 0.01 0.01 0.01 0.01 0.01 0.01 0.01 0.01 0.01 0.01 0.01 0.00 0.01 0.01 0.01 0.01
MSLP
1024.58 1025.09 1025.52 1025.79 1025.83 1025.59 1025.05 1024.24 1023.22 1022.06 1020.87 1019.77 1018.84 1018.15 1017.69 1017.46 1017.40 1017.42 1017.43 1017.38 1017.19 1016.88 1016.46 1015.98 1015.49 1015.08 1014.79 1014.64 1014.65 1014.79 1015.00 1015.26 1015.51 1015.74 1015.94 1016.13 1016.34 1016.61 1016.98 1017.46 1018.06 1018.74 1019.47 1020.21
1024.57 1024.83 1025.00 1025.00 1024.81 1024.39 1023.74 1022.91 1021.94 1020.92 1019.93 1019.05 1018.35 1017.85 1017.56 1017.43 1017.41 1017.42 1017.39 1017.27 1017.02 1016.64 1016.17 1015.66 1015.17 1014.76 1014.47 1014.33 1014.33 1014.45 1014.64 1014.87 1015.11 1015.32 1015.51 1015.71 1015.93 1016.22 1016.60 1017.10 1017.70 1018.38 1019.11 1019.83
1024.38 1024.40 1024.30 1024.06 1023.66 1023.11 1022.41 1021.62 1020.77 1019.93 1019.17 1018.52 1018.04 1017.73 1017.56 1017.49 1017.48 1017.45 1017.35 1017.14 1016.81 1016.37 1015.86 1015.32 1014.83 1014.42 1014.14 1014.00 1013.99 1014.08 1014.25 1014.45 1014.67 1014.87 1015.07 1015.29 1015.55 1015.89 1016.31 1016.84 1017.46 1018.15 1018.86 1019.56
1024.01 1023.79 1023.45 1023.01 1022.47 1021.84 1021.16 1020.46 1019.77 1019.14 1018.60 1018.18 1017.89 1017.71 1017.62 1017.56 1017.51 1017.39 1017.19 1016.88 1016.46 1015.95 1015.41 1014.87 1014.38 1013.99 1013.72 1013.59 1013.57 1013.65 1013.79 1013.98 1014.18 1014.39 1014.62 1014.88 1015.20 1015.60 1016.08 1016.66 1017.31 1018.01 1018.71 1019.38
1023.43 1023.01 1022.49 1021.91 1021.29 1020.66 1020.04 1019.47 1018.96 1018.54 1018.21 1017.97 1017.81 1017.71 1017.63 1017.53 1017.38 1017.15 1016.82 1016.39 1015.88 1015.32 1014.76 1014.23 1013.77 1013.41 1013.18 1013.07 1013.06 1013.13 1013.27 1013.44 1013.65 1013.88 1014.15 1014.48 1014.87 1015.35 1015.90 1016.54 1017.22 1017.92 1018.60 1019.22
1022.68 1022.10 1021.47 1020.82 1020.19 1019.60 1019.09 1018.66 1018.33 1018.09 1017.92 1017.81 1017.73 1017.63 1017.50 1017.30 1017.02 1016.64 1016.17 1015.62 1015.03 1014.44 1013.88 1013.38 1012.98 1012.69 1012.51 1012.44 1012.46 1012.55 1012.70 1012.88 1013.11 1013.38 1013.70 1014.09 1014.56 1015.12 1015.75 1016.43 1017.14 1017.84 1018.49 1019.05
1021.78 1021.12 1020.44 1019.79 1019.20 1018.70 1018.31 1018.04 1017.86 1017.75 1017.69 1017.64 1017.56 1017.41 1017.17 1016.83 1016.39 1015.85 1015.24 1014.60 1013.95 1013.35 1012.82 1012.39 1012.07 1011.86 1011.76 1011.76 1011.83 1011.96 1012.13 1012.34 1012.60 1012.91 1013.29 1013.75 1014.29 1014.91 1015.59 1016.31 1017.03 1017.71 1018.31 1018.81
1020.81 1020.14 1019.48 1018.88 1018.38 1017.99 1017.74 1017.59 1017.52 1017.50 1017.48 1017.42 1017.28 1017.03 1016.65 1016.15 1015.54 1014.85 1014.13 1013.41 1012.74 1012.15 1011.68 1011.33 1011.11 1011.01 1011.01 1011.09 1011.22 1011.40 1011.61 1011.86 1012.15 1012.50 1012.93 1013.44 1014.03 1014.70 1015.41 1016.14 1016.85 1017.50 1018.06 1018.49
1019.88 1019.26 1018.67 1018.17 1017.79 1017.52 1017.37 1017.31 1017.31 1017.32 1017.28 1017.16 1016.91 1016.52 1015.99 1015.33 1014.58 1013.77 1012.96 1012.20 1011.53 1010.99 1010.60 1010.35 1010.24 1010.25 1010.34 1010.50 1010.70 1010.93 1011.18 1011.46 1011.79 1012.17 1012.63 1013.17 1013.79 1014.47 1015.19 1015.91 1016.60 1017.21 1017.71 1018.09
1019.13 1018.60 1018.12 1017.74 1017.47 1017.31 1017.24 1017.23 1017.23 1017.21 1017.11 1016.88 1016.51 1015.97 1015.30 1014.50 1013.63 1012.75 1011.89 1011.13 1010.50 1010.02 1009.71 1009.56 1009.55 1009.64 1009.82 1010.04 1010.29 1010.55 1010.83 1011.14 1011.49 1011.89 1012.37 1012.92 1013.55 1014.23 1014.93 1015.63 1016.27 1016.83 1017.29 1017.62
1018.66 1018.25 1017.91 1017.64 1017.47 1017.38 1017.34 1017.33 1017.30 1017.20 1016.99 1016.64 1016.13 1015.47 1014.68 1013.79 1012.86 1011.93 1011.08 1010.34 1009.76 1009.35 1009.11 1009.03 1009.09 1009.24 1009.46 1009.72 1009.99 1010.27 1010.56 1010.87 1011.23 1011.64 1012.12 1012.67 1013.29 1013.95 1014.62 1015.28 1015.88 1016.39 1016.80 1017.10
1018.58 1018.30 1018.07 1017.90 1017.79 1017.73 1017.68 1017.62 1017.50 1017.29 1016.96 1016.49 1015.87 1015.11 1014.23 1013.30 1012.35 1011.44 1010.61 1009.92 1009.40 1009.04 1008.85 1008.81 1008.88 1009.05 1009.27 1009.51 1009.77 1010.04 1010.32 1010.63 1010.98 1011.39 1011.86 1012.41 1013.00 1013.63 1014.27 1014.89 1015.44 1015.92 1016.30 1016.58
1018.90 1018.73 1018.59 1018.49 1018.40 1018.31 1018.21 1018.05 1017.82 1017.49 1017.03 1016.45 1015.74 1014.91 1014.02 1013.08 1012.15 1011.29 1010.52 1009.88 1009.40 1009.07 1008.89 1008.84 1008.89 1009.02 1009.19 1009.39 1009.60 1009.83 1010.08 1010.37 1010.71 1011.11 1011.58 1012.11 1012.69 1013.30 1013.90 1014.47 1015.00 1015.44 1015.80 1016.07
1019.59 1019.49 1019.41 1019.31 1019.20 1019.05 1018.85 1018.58 1018.22 1017.76 1017.19 1016.52 1015.75 1014.91 1014.02 1013.12 1012.26 1011.46 1010.75 1010.16 1009.71 1009.38 1009.18 1009.08 1009.06 1009.10 1009.19 1009.30 1009.45 1009.62 1009.84 1010.10 1010.43 1010.82 1011.28 1011.80 1012.37 1012.95 1013.53 1014.07 1014.57 1014.99 1015.34 1015.61
1020.52 1020.47 1020.39 1020.27 1020.09 1019.84 1019.52 1019.12 1018.63 1018.06 1017.40 1016.68 1015.89 1015.06 1014.22 1013.40 1012.61 1011.88 1011.24 1010.69 1010.24 1009.89 1009.63 1009.44 1009.32 1009.25 1009.23 1009.25 1009.31 1009.42 1009.59 1009.83 1010.15 1010.54 1011.00 1011.51 1012.07 1012.63 1013.19 1013.71 1014.18 1014.59 1014.92 1015.20
1021.55 1021.50 1021.39 1021.21 1020.95 1020.59 1020.15 1019.63 1019.03 1018.37 1017.66 1016.91 1016.14 1015.36 1014.59 1013.85 1013.15 1012.49 1011.90 1011.37 1010.91 1010.51 1010.17 1009.88 1009.64 1009.46 1009.32 1009.24 1009.22 1009.27 1009.40 1009.62 1009.93 1010.31 1010.77 1011.28 1011.82 1012.37 1012.90 1013.40 1013.84 1014.23 1014.56 1014.84
1022.50 1022.43 1022.28 1022.03 1021.67 1021.22 1020.67 1020.06 1019.39 1018.67 1017.94 1017.20 1016.48 1015.77 1015.08 1014.43 1013.81 1013.22 1012.67 1012.15 1011.66 1011.20 1010.77 1010.38 1010.03 1009.73 1009.48 1009.31 1009.23 1009.23 1009.33 1009.53 1009.82 1010.20 1010.64 1011.13 1011.65 1012.17 1012.67 1013.14 1013.55 1013.92 1014.24 1014.52
1023.24 1023.15 1022.94 1022.63 1022.21 1021.68 1021.07 1020.41 1019.70 1018.98 1018.27 1017.58 1016.92 1016.29 1015.69 1015.12 1014.57 1014.03 1013.50 1012.98 1012.45 1011.93 1011.42 1010.94 1010.49 1010.10 1009.77 1009.53 1009.39 1009.35 1009.42 1009.59 1009.87 1010.22 1010.63 1011.09 1011.56 1012.04 1012.49 1012.91 1013.29 1013.63 1013.93 1014.20
1023.68 1023.56 1023.33 1022.99 1022.54 1021.99 1021.37 1020.70 1020.02 1019.33 1018.68 1018.05 1017.47 1016.92 1016.40 1015.90 1015.41 1014.90 1014.38 1013.84 1013.28 1012.71 1012.14 1011.58 1011.06 1010.60 1010.21 1009.92 1009.74 1009.67 1009.71 1009.85 1010.08 1010.39 1010.75 1011.14 1011.54 1011.94 1012.32 1012.68 1013.01 1013.31 1013.59 1013.85
1023.81 1023.70 1023.48 1023.15 1022.72 1022.20 1021.62 1021.00 1020.38 1019.77 1019.19 1018.64 1018.14 1017.67 1017.22 1016.77 1016.30 1015.82 1015.29 1014.74 1014.14 1013.53 1012.91 1012.31 1011.74 1011.24 1010.82 1010.50 1010.28 1010.18 1010.18 1010.27 1010.44 1010.67 1010.94 1011.24 1011.54 1011.84 1012.13 1012.41 1012.68 1012.94 1013.19 1013.44
1023.70 1023.63 1023.46 1023.19 1022.82 1022.38 1021.88 1021.35 1020.82 1020.31 1019.81 1019.35 1018.92 1018.51 1018.10 1017.68 1017.23 1016.75 1016.21 1015.63 1015.02 1014.37 1013.73 1013.10 1012.52 1012.00 1011.56 1011.21 1010.97 1010.83 1010.77 1010.80 1010.88 1011.01 1011.17 1011.35 1011.53 1011.71 1011.90 1012.09 1012.28 1012.49 1012.71 1012.95
1023.45 1023.45 1023.36 1023.19 1022.92 1022.59 1022.20 1021.78 1021.36 1020.94 1020.53 1020.14 1019.76 1019.39 1019.00 1018.59 1018.14 1017.64 1017.09 1016.50 1015.86 1015.21 1014.55 1013.92 1013.33 1012.81 1012.36 1012.01 1011.73 1011.55 1011.43 1011.37 1011.35 1011.36 1011.39 1011.43 1011.48 1011.54 1011.61 1011.70 1011.82 1011.98 1012.17 1012.39
1023.18 1023.27 1023.29 1023.23 1023.08 1022.86 1022.59 1022.28 1021.95 1021.61 1021.27 1020.93 1020.58 1020.22 1019.84 1019.42 1018.95 1018.43 1017.87 1017.26 1016.62 1015.96 1015.31 1014.69 1014.11 1013.60 1013.15 1012.78 1012.48 1012.24 1012.05 1011.90 1011.78 1011.67 1011.56 1011.47 1011.39 1011.32 1011.28 1011.28 1011.33 1011.44 1011.60 1011.81
1022.98 1023.18 1023.30 1023.34 1023.30 1023.18 1023.00 1022.78 1022.52 1022.24 1021.94 1021.62 1021.28 1020.91 1020.51 1020.07 1019.58 1019.04 1018.46 1017.84 1017.21 1016.57 1015.94 1015.34 1014.78 1014.28 1013.84 1013.46 1013.13 1012.84 1012.59 1012.35 1012.12 1011.90 1011.68 1011.47 1011.27 1011.09 1010.96 1010.88 1010.87 1010.93 1011.06 1011.26
1022.91 1023.20 1023.40 1023.52 1023.55 1023.51 1023.39 1023.21 1022.99 1022.72 1022.43 1022.10 1021.75 1021.35 1020.93 1020.46 1019.94 1019.39 1018.81 1018.20 1017.58 1016.96 1016.36 1015.79 1015.27 1014.79 1014.36 1013.97 1013.62 1013.30 1012.99 1012.68 1012.37 1012.06 1011.75 1011.44 1011.15 1010.90 1010.70 1010.56 1010.50 1010.51 1010.61 1010.78
1022.99 1023.32 1023.57 1023.73 1023.79 1023.77 1023.66 1023.49 1023.26 1022.98 1022.66 1022.31 1021.92 1021.49 1021.03 1020.54 1020.01 1019.46 1018.88 1018.29 1017.69 1017.11 1016.55 1016.02 1015.53 1015.07 1014.66 1014.28 1013.92 1013.57 1013.23 1012.88 1012.52 1012.15 1011.78 1011.42 1011.08 1010.78 1010.53 1010.35 1010.25 1010.23 1010.29 1010.42
1023.15 1023.49 1023.74 1023.89 1023.94 1023.89 1023.76 1023.55 1023.28 1022.97 1022.60 1022.20 1021.78 1021.32 1020.83 1020.32 1019.79 1019.24 1018.68 1018.11 1017.55 1017.01 1016.49 1016.00 1015.55 1015.13 1014.73 1014.36 1014.01 1013.65 1013.30 1012.93 1012.55 1012.17 1011.78 1011.39 1011.04 1010.72 1010.45 1010.24 1010.11 1010.06 1010.08 1010.17
Thickness
5409 5414 5413 5416 5416 5409 5409 5416 5418 5430 5430 5445 5445 5441 5439 5436 5435 5436 5436 5436 5435 5434 5433 5433 5433 5434 5434 5434 5433 5432 5431 5430 5429 5429 5428 5427 5426 5426 5425 5425 5424 5423 5422 5421
5403 5406 5403 5407 5413 5410 5409 5412 5413 5418 5427 5440 5435 5432 5430 5429 5428 5428 5430 5429 5428 5427 5426 5426 5426 5426 5425 5425 5425 5424 5423 5422 5421 5420 5419 5418 5418 5417 5417 5416 5415 5414 5413 5412
5399 5396 5399 5406 5415 5412 5409 5409 5411 5419 5433 5433 5429 5428 5426 5424 5423 5422 5423 5422 5421 5420 5419 5419 5417 5417 5416 5417 5416 5415 5415 5414 5413 5412 5411 5410 5409 5408 5408 5407 5406 5405 5405 5404
5383 5388 5399 5424 5415 5413 5411 5412 5409 5416 5422 5422 5422 5419 5416 5415 5414 5414 5415 5414 5413 5412 5411 5410 5410 5409 5408 5408 5407 5407 5406 5406 5405 5404 5403 5401 5400 5399 5398 5398 5397 5397 5397 5396
5374 5379 5391 5410 5410 5402 5402 5410 5410 5408 5412 5409 5408 5407 5411 5412 5408 5408 5408 5407 5406 5404 5403 5402 5401 5401 5400 5400 5399 5398 5398 5397 5396 5395 5394 5393 5392 5391 5390 5389 5389 5388 5388 5388
5364 5376 5389 5412 5407 5398 5400 5405 5411 5402 5402 5400 5398 5399 5410 5408 5404 5402 5401 5399 5398 5396 5395 5394 5394 5393 5393 5392 5391 5391 5391 5390 5388 5387 5386 5385 5384 5383 5382 5381 5381 5381 5381 5380
5360 5365 5382 5398 5393 5393 5397 5407 5405 5397 5396 5392 5390 5396 5399 5398 5396 5395 5393 5392 5391 5389 5387 5387 5386 5386 5385 5385 5384 5385 5384 5382 5381 5379 5378 5377 5375 5374 5373 5372 5372 5371 5372 5372
5353 5360 5383 5390 5383 5389 5397 5396 5393 5391 5389 5386 5385 5387 5388 5388 5388 5387 5385 5384 5383 5381 5380 5379 5378 5378 5377 5377 5378 5377 5376 5375 5374 5372 5371 5370 5367 5366 5364 5363 5363 5363 5363 5364
5366 5381 5386 5380 5382 5386 5384 5384 5385 5384 5383 5382 5381 5380 5381 5380 5379 5378 5377 5376 5375 5374 5373 5372 5371 5371 5370 5371 5371 5370 5369 5368 5367 5365 5363 5362 5360 5358 5356 5356 5355 5356 5355 5356
5356 5370 5375 5375 5376 5377 5377 5377 5379 5378 5377 5375 5375 5374 5373 5372 5371 5370 5370 5369 5368 5367 5366 5366 5365 5365 5364 5364 5364 5363 5361 5360 5359 5357 5356 5354 5353 5352 5351 5350 5349 5349 5349 5350
5353 5364 5369 5375 5373 5374 5374 5373 5372 5371 5371 5370 5368 5368 5366 5365 5364 5364 5364 5362 5361 5360 5360 5360 5359 5358 5358 5358 5357 5355 5354 5353 5352 5351 5349 5348 5347 5346 5345 5345 5344 5344 5344 5344
5365 5370 5367 5373 5373 5370 5367 5368 5367 5365 5364 5363 5362 5361 5360 5359 5358 5357 5356 5356 5354 5354 5354 5353 5352 5352 5352 5352 5351 5350 5349 5348 5346 5345 5343 5342 5341 5341 5340 5339 5339 5339 5339 5339
5364 5365 5363 5365 5365 5363 5361 5361 5360 5359 5357 5356 5355 5354 5353 5352 5351 5350 5350 5349 5348 5348 5347 5347 5346 5347 5347 5347 5346 5345 5343 5342 5341 5340 5338 5337 5336 5335 5334 5334 5333 5333 5334 5335
5354 5355 5356 5358 5356 5355 5353 5352 5351 5350 5349 5348 5347 5346 5345 5344 5344 5344 5344 5344 5343 5342 5342 5341 5341 5342 5342 5341 5341 5340 5338 5337 5336 5335 5333 5332 5331 5330 5329 5328 5328 5328 5329 5330
5347 5347 5349 5348 5347 5346 5344 5343 5343 5342 5342 5341 5340 5339 5338 5338 5338 5338 5338 5337 5337 5336 5336 5336 5337 5338 5337 5336 5336 5335 5333 5332 5331 5330 5329 5327 5326 5325 5324 5323 5323 5323 5323 5324
5340 5339 5339 5338 5339 5338 5337 5336 5336 5336 5335 5334 5333 5332 5331 5331 5331 5331 5330 5330 5330 5331 5332 5332 5332 5333 5333 5331 5331 5330 5329 5328 5327 5325 5324 5322 5321 5320 5319 5319 5319 5318 5319 5319
5334 5335 5334 5333 5333 5332 5331 5330 5330 5329 5328 5327 5326 5325 5324 5324 5324 5324 5324 5324 5324 5325 5326 5326 5327 5328 5327 5327 5326 5325 5324 5323 5323 5321 5320 5318 5317 5316 5316 5315 5315 5315 5315 5316
5331 5331 5330 5329 5328 5326 5326 5325 5323 5322 5321 5321 5319 5318 5317 5317 5318 5318 5318 5318 5318 5319 5320 5321 5322 5322 5322 5322 5321 5320 5320 5319 5318 5317 5316 5315 5314 5313 5312 5312 5312 5312 5312 5312
5325 5324 5323 5322 5321 5321 5320 5319 5317 5316 5315 5314 5313 5312 5312 5312 5312 5312 5312 5311 5312 5314 5316 5316 5318 5318 5318 5317 5318 5317 5316 5315 5314 5313 5312 5312 5311 5310 5309 5309 5309 5309 5309 5308
5318 5317 5316 5315 5315 5314 5313 5312 5311 5309 5308 5307 5307 5307 5307 5307 5307 5306 5306 5307 5308 5309 5310 5311 5312 5312 5312 5313 5314 5313 5312 5311 5310 5309 5309 5308 5308 5307 5307 5307 5306 5306 5306 5306
5312 5311 5310 5309 5308 5308 5307 5306 5305 5304 5304 5302 5301 5301 5301 5301 5301 5301 5301 5303 5305 5305 5305 5307 5307 5307 5308 5309 5310 5309 5308 5307 5306 5306 5305 5305 5305 5305 5305 5304 5304 5304 5304 5304
5305 5304 5304 5303 5302 5301 5301 5299 5299 5299 5299 5298 5297 5296 5295 5296 5296 5296 5297 5298 5300 5301 5301 5301 5302 5303 5304 5305 5304 5304 5303 5303 5302 5302 5302 5302 5302 5302 5302 5302 5302 5303 5303 5303
5299 5299 5298 5297 5296 5295 5295 5295 5294 5294 5293 5293 5292 5291 5291 5291 5291 5292 5294 5295 5295 5296 5297 5297 5298 5300 5301 5299 5299 5299 5298 5298 5298 5298 5298 5299 5299 5299 5300 5300 5301 5301 5301 5301
5294 5293 5292 5291 5290 5290 5291 5291 5290 5290 5289 5288 5288 5287 5287 5287 5288 5289 5289 5291 5291 5292 5292 5292 5294 5295 5295 5294 5293 5293 5293 5293 5293 5294 5294 5295 5295 5296 5297 5297 5298 5298 5299 5299
5288 5287 5286 5286 5286 5287 5287 5286 5285 5285 5285 5285 5285 5285 5284 5284 5284 5286 5285 5285 5287 5287 5287 5287 5289 5290 5288 5288 5287 5288 5288 5289 5289 5290 5290 5291 5292 5293 5294 5295 5295 5296 5296 5297
5283 5283 5282 5282 5282 5282 5282 5282 5282 5282 5282 5282 5283 5282 5282 5282 5282 5282 5282 5282 5282 5283 5282 5282 5282 5283 5282 5282 5282 5283 5283 5285 5285 5286 5287 5288 5289 5290 5291 5292 5292 5293 5294 5295
5279 5279 5279 5279 5279 5279 5278 5278 5278 5279 5279 5278 5279 5279 5279 5279 5279 5279 5279 5279 5279 5278 5278 5278 5277 5277 5277 5277 5278 5279 5280 5281 5282 5283 5284 5285 5286 5287 5288 5289 5290 5291 5292 5293